CSN8353 ZGZH-ZSPD

Flight info

Callsign CSN8353
Flight time N/A
Altitude 35100
Route JW VQ R343 ABTUD W227 OMKOB H166 ELNEX G204 SHZ W58 XSY
Aircraft A320/M-SDE3FGHIRWY/LB1

Departure

Time N/A
Airport Liuzhou Bailian Airport / Bailian Air Base (ZGZH)

Arrival

Time 2026-05-05 14:49
Airport Shanghai Pudong International Airport (ZSPD)
Time Latitude Longitude Altitude Speed Heading
2026-05-05 14:40 31.41037 121.62462 2996 ft 211 kts 82°
2026-05-05 14:40 31.41345 121.64094 2993 ft 199 kts 83°
2026-05-05 14:41 31.41638 121.65663 2998 ft 196 kts 83°
2026-05-05 14:41 31.41637 121.67106 3010 ft 174 kts 111°
2026-05-05 14:41 31.41070 121.68283 2997 ft 151 kts 139°
2026-05-05 14:41 31.40193 121.68833 3007 ft 144 kts 165°
2026-05-05 14:42 31.39240 121.69247 3002 ft 146 kts 161°
2026-05-05 14:42 31.38282 121.69655 3005 ft 146 kts 162°
2026-05-05 14:42 31.37316 121.70042 3002 ft 147 kts 163°
2026-05-05 14:42 31.36353 121.70417 3008 ft 145 kts 163°
2026-05-05 14:43 31.35381 121.70790 3008 ft 145 kts 163°
2026-05-05 14:43 31.34428 121.71154 3007 ft 147 kts 163°
2026-05-05 14:43 31.33459 121.71523 3004 ft 146 kts 163°
2026-05-05 14:43 31.32483 121.71894 3007 ft 145 kts 163°
2026-05-05 14:44 31.31517 121.72260 3005 ft 147 kts 163°
2026-05-05 14:44 31.30548 121.72628 2972 ft 146 kts 163°
2026-05-05 14:44 31.29574 121.72997 2836 ft 148 kts 163°
2026-05-05 14:44 31.28607 121.73364 2674 ft 145 kts 163°
2026-05-05 14:45 31.27655 121.73725 2494 ft 144 kts 164°
2026-05-05 14:45 31.26699 121.74087 2313 ft 144 kts 164°
2026-05-05 14:45 31.25740 121.74450 2121 ft 143 kts 163°
2026-05-05 14:45 31.24795 121.74808 1935 ft 142 kts 164°
2026-05-05 14:46 31.23855 121.75164 1741 ft 142 kts 165°
2026-05-05 14:46 31.22914 121.75521 1556 ft 142 kts 165°
2026-05-05 14:46 31.22294 121.75755 1437 ft 140 kts 165°
2026-05-05 14:46 31.21364 121.76107 1251 ft 139 kts 164°
2026-05-05 14:47 31.20442 121.76457 1059 ft 140 kts 163°
2026-05-05 14:47 31.19514 121.76808 873 ft 140 kts 162°
2026-05-05 14:47 31.18590 121.77161 695 ft 140 kts 161°
2026-05-05 14:47 31.17669 121.77519 538 ft 138 kts 162°
2026-05-05 14:48 31.16752 121.77859 319 ft 140 kts 163°
2026-05-05 14:48 31.15789 121.78230 134 ft 140 kts 163°
2026-05-05 14:48 31.14872 121.78572 26 ft 133 kts 162°
2026-05-05 14:48 31.14144 121.78839 21 ft 84 kts 162°
2026-05-05 14:49 31.13749 121.78986 22 ft 44 kts 162°
2026-05-05 14:49 31.13532 121.79123 24 ft 27 kts 136°
2026-05-05 14:49 31.13441 121.79247 23 ft 14 kts 101°
2026-05-05 14:49 31.13508 121.79289 23 ft 10 kts 346°
2026-05-05 14:50 31.13572 121.79268 23 ft 8 kts 345°
2026-05-05 14:50 31.13604 121.79285 24 ft 5 kts 81°
2026-05-05 14:50 31.13613 121.79340 23 ft 14 kts 74°
2026-05-05 14:50 31.13650 121.79474 22 ft 19 kts 71°
2026-05-05 14:51 31.13692 121.79627 23 ft 19 kts 72°
2026-05-05 14:51 31.13732 121.79714 23 ft 9 kts 21°
2026-05-05 14:51 31.13795 121.79698 23 ft 9 kts 342°
2026-05-05 14:51 31.13852 121.79677 23 ft 8 kts 342°
2026-05-05 14:52 31.13904 121.79657 24 ft 8 kts 342°
2026-05-05 14:52 31.13961 121.79635 23 ft 12 kts 342°
2026-05-05 14:52 31.14058 121.79598 23 ft 15 kts 342°
2026-05-05 14:52 31.14154 121.79562 23 ft 14 kts 342°
2026-05-05 14:53 31.14244 121.79528 23 ft 13 kts 342°
2026-05-05 14:53 31.14327 121.79497 26 ft 11 kts 343°
2026-05-05 14:53 31.14369 121.79545 23 ft 9 kts 74°
2026-05-05 14:53 31.14391 121.79626 24 ft 14 kts 71°
2026-05-05 14:54 31.14425 121.79748 23 ft 16 kts 72°
2026-05-05 14:54 31.14460 121.79879 24 ft 18 kts 72°
2026-05-05 14:54 31.14500 121.80021 23 ft 19 kts 72°
2026-05-05 14:54 31.14546 121.80107 23 ft 10 kts 20°
2026-05-05 14:55 31.14608 121.80097 23 ft 9 kts 343°
2026-05-05 14:55 31.14664 121.80075 23 ft 8 kts 342°
2026-05-05 14:55 31.14716 121.80056 23 ft 8 kts 342°
2026-05-05 14:55 31.14764 121.80038 23 ft 7 kts 342°
2026-05-05 14:56 31.14808 121.80021 23 ft 6 kts 342°
2026-05-05 14:56 31.14830 121.79989 23 ft 6 kts 267°
2026-05-05 14:56 31.14814 121.79950 23 ft 4 kts 250°
2026-05-05 14:56 31.14813 121.79945 23 ft 0 kts 250°